Location: Robert Brownlee Observatory
(34.2308°N, 117.2089°W)
Time: 04:25:06
(UTC-08:00)

Cosmos 1943 - Visible Passes

Search period start: 08 February 2016 00:00
Search period end: 18 February 2016 00:00
Orbit: 835 x 848 km, 71.0° (Epoch: 08 February)

Date Brightness Start Highest point End Pass type
(mag) Time Alt. Az. Time Alt. Az. Time Alt. Az.
08 Feb 6.0 03:59:44 10° NNE 04:01:49 12° NE 04:03:55 10° ENE visible
08 Feb 3.2 05:40:56 10° NNW 05:46:34 86° WSW 05:52:12 10° SSE visible
08 Feb 3.5 18:44:44 10° S 18:50:00 43° ESE 18:52:33 27° NE visible
08 Feb 5.2 20:29:49 10° WSW 20:34:12 23° WNW 20:34:29 23° NW visible
09 Feb 6.0 03:45:07 10° NE 03:46:49 11° NE 03:48:32 10° ENE visible
09 Feb 3.2 05:25:59 10° NNW 05:31:37 89° NE 05:37:16 10° SSE visible
09 Feb 3.6 18:29:52 10° S 18:35:04 40° ESE 18:39:34 14° NE visible
09 Feb 5.2 20:14:44 10° WSW 20:19:13 24° WNW 20:21:29 19° NNW visible
10 Feb 6.1 03:30:38 10° NE 03:31:50 11° NE 03:33:01 10° ENE visible
10 Feb 3.2 05:11:02 10° NNW 05:16:41 85° ENE 05:22:19 10° SSE visible
10 Feb 3.7 18:15:01 10° S 18:20:09 38° ESE 18:25:18 10° NE visible
10 Feb 5.1 19:59:39 10° WSW 20:04:14 25° WNW 20:08:26 12° N visible
11 Feb 3.2 04:56:05 10° NNW 05:01:44 81° ENE 05:07:22 10° SSE visible
11 Feb 3.8 18:00:09 10° SSE 18:05:13 36° ESE 18:10:18 10° NE visible
11 Feb 5.1 19:44:35 10° WSW 19:49:16 27° WNW 19:53:57 10° N visible
12 Feb 3.3 04:42:18 17° NNW 04:46:47 76° ENE 04:52:25 10° SSE visible
12 Feb 5.1 19:29:32 10° WSW 19:34:18 28° WNW 19:39:05 10° N visible
13 Feb 3.3 04:29:01 30° N 04:31:51 72° ENE 04:37:27 10° SSE visible
13 Feb 4.9 06:13:12 10° WNW 06:15:09 12° W 06:17:06 10° WSW visible
13 Feb 5.0 19:14:28 10° WSW 19:19:20 29° WNW 19:24:12 10° N visible
14 Feb 3.4 04:15:55 57° NNE 04:16:54 68° ENE 04:22:29 10° SSE visible
14 Feb 4.8 05:57:54 10° WNW 06:00:14 13° W 06:02:35 10° WSW visible
14 Feb 4.9 18:59:25 10° WSW 19:04:22 31° WNW 19:09:19 10° N visible
15 Feb 3.7 04:02:54 55° ESE 04:02:54 55° ESE 04:07:31 10° SSE visible
15 Feb 4.7 05:44:50 13° W 05:45:20 14° W 05:48:00 10° SW visible
15 Feb 4.9 18:44:23 10° SW 18:49:24 33° WNW 18:54:26 10° N visible
16 Feb 4.7 03:49:57 28° SE 03:49:57 28° SE 03:52:33 10° SSE visible
16 Feb 4.9 05:31:53 13° WSW 05:31:53 13° WSW 05:33:22 10° SW visible
16 Feb 4.8 18:29:21 10° SW 18:34:26 34° WNW 18:39:32 10° N visible
17 Feb 5.6 03:36:59 13° SE 03:36:59 13° SE 03:37:35 10° SE visible
17 Feb 4.8 18:14:19 10° SW 18:19:28 36° WNW 18:24:38 10° N visible
